Simultaneous Nadir Overpasses (SNOs) Predictions

Prediction of SNOs between AQUA and METOP-B Satellite Orbit:

Table of predicted SNOs for the next 14.0 days since TLE Epoch: 12/4/2021
Index Date (AQUA) Time (AQUA) Lat,Lon (AQUA) SZA (AQUA ) Date (METOP-B) Time (METOP-B) Lat,Lon (METOP-B) SZA (METOP-B ) Distance(km) Time Diff (sec)
1 12/05/2021 20:34:01 73.77,-134.14 96.18 12/05/2021 20:33:01 73.76,-134.07 96.17 2.75 60
2 12/05/2021 21:23:27 -73.80, 33.45 83.79 12/05/2021 21:23:41 -73.83, 33.43 83.76 3.58 14
3 12/05/2021 22:13:04 74.28,-160.02 96.72 12/05/2021 22:14:12 74.28,-158.13 96.68 56.90 68
4 12/08/2021 16:08:19 73.73, -67.61 96.45 12/08/2021 16:07:23 73.74, -67.69 96.47 3.07 56
5 12/08/2021 16:57:46 -73.80, 99.87 83.48 12/08/2021 16:58:03 -73.82, 99.81 83.46 2.60 17
6 12/08/2021 17:47:25 74.39, -93.85 97.15 12/08/2021 17:48:32 74.36, -91.50 97.08 70.38 67
7 12/11/2021 11:42:38 73.75, -1.23 96.73 12/11/2021 11:41:44 73.77, -1.21 96.76 2.88 54
8 12/11/2021 12:32:05 -73.82, 166.27 83.20 12/11/2021 12:32:25 -73.80, 166.18 83.22 3.19 20
9 12/11/2021 13:21:46 74.52, -27.72 97.54 12/11/2021 13:22:51 74.49, -24.76 97.46 87.98 65
10 12/14/2021 07:16:57 73.78, 65.13 96.96 12/14/2021 07:16:06 73.75, 65.15 96.94 3.40 51
11 12/14/2021 08:06:24 -73.85,-127.37 82.98 12/14/2021 08:06:46 -73.83,-127.34 82.99 1.88 22
12 12/17/2021 02:51:14 73.78, 131.57 97.09 12/17/2021 02:50:26 73.78, 131.61 97.10 1.10 48
13 12/17/2021 03:40:41 -73.84, -60.91 82.85 12/17/2021 03:41:06 -73.85, -60.88 82.83 2.44 25



Historial Predications of SNOs between AQUA and METOP-B
